Regional Weather Roundup
Issued by NWS

Home | Current Version | Previous Version | Text Only | Print | Product List | Glossary On
Versions: 1 2 3 4 5 6 7 8 9 10 11 12 13 14 15 16 17 18 19 20 21 22 23 24 25 26 27 28 29 30 31 32 33 34 35 36 37 38 39 40 41 42 43 44 45 46 47 48 49 50
000
ASCA44 KEWX 051320
RWRMX

LATIN AMERICA AND CARIBBEAN REGIONAL WEATHER ROUNDUP
NATIONAL WEATHER SERVICE AUSTIN/SAN ANTONIO TX
800 AM CDT SAT SEP 05 2015

NOTE: "FAIR" INDICATED FEW OR NO CLOUDS BELOW 12,000 FEET WITH NO
SIGNIFICANT WEATHER AND/OR OBSTRUCTIONS TO VISIBILITY.

BAJA CALIFORNIA

CITY           SKY/WX    TMP DP  RH WIND       PRES   REMARKS
LORETO         MOCLDY    84  79  84 CALM      29.79  HX  96
TIJUANA        PTCLDY    66  55  68 N3        29.90F

NORTHWESTERN MEXICO

CITY           SKY/WX    TMP DP  RH WIND       PRES   REMARKS
DURANGO        MOCLDY    63  57  82 CALM      30.21

NORTHEASTERN MEXICO

CITY           SKY/WX    TMP DP  RH WIND       PRES   REMARKS
MATAMOROS      PTCLDY    81  79  94 SE5       29.96
MONTERREY      CLOUDY    75  70  83 E5        29.94R
NUEVO LAREDO   CLEAR     81  73  78 S9        29.92
SALTILLO       CLEAR     70  59  68 S6        30.15R
TORREON        MOCLDY    81  59  47 E7        30.05

WESTERN MEXICO

CITY           SKY/WX    TMP DP  RH WIND       PRES   REMARKS
AGUASCALIENTES CLOUDY    59  59 100 N5        30.26R
GUADALAJARA    CLOUDY    64  59  82 N3        30.18R
MAZATLAN       MOCLDY    73  72  94 NE10      29.84S
P. VALLARTA    MOCLDY    73  73 100 N3        29.86S
ZACATECAS      CLEAR     54  46  76 CALM      30.29R

CENTRAL MEXICO

CITY           SKY/WX    TMP DP  RH WIND       PRES   REMARKS
CUERNAVACA     PTCLDY    63  63 100 CALM      30.12
MEXICO CITY    CLOUDY    59  54  82 N5        30.33R
POZA RICA      MOCLDY    79  75  89 CALM      29.85R
PUEBLA         MOCLDY    50  48  93 NW8       30.32S WCI  47
QUERETARO      MOCLDY    59  57  94 SE5       30.29S
S. LUIS POTOSI DRIZZLE   61  61 100 NE3       30.25R
TAMPICO        PTCLDY    77  75  94 CALM      29.95S
TOLUCA         MOCLDY    46  45  93 CALM      30.37R FOG

SOUTHERN MEXICO

CITY           SKY/WX    TMP DP  RH WIND       PRES   REMARKS
ACAPULCO       MOCLDY    79  75  89 NE5       29.83S
B. DE HUATULCO MOSUNNY   77  61  57 CALM      29.93S
OAXACA         PTSUNNY   63  59  88 N3        30.22R
P. ESCONDIDO   CLOUDY    75  70  83 NE12      29.95
VERACRUZ       MOSUNNY   75  73  94 CALM      29.93R
ZIHUATANEJO    PTCLDY    79  73  83 CALM      29.84S

YUCATAN PENINSULA

CITY           SKY/WX    TMP DP  RH WIND       PRES   REMARKS
CAMPECHE       SUNNY     77  75  94 SE6       29.94R
CANCUN         PTSUNNY   81  77  89 N5        29.99R
CHETUMAL       PTSUNNY   84  73  70 CALM      29.97R HX  91
CD. DEL CARMEN MOSUNNY   82  77  83 E7        29.93R HX  91
COZUMEL        MOSUNNY   75  75 100 CALM      29.98R
MERIDA         SUNNY     79  75  89 E6        29.99R
MINATITLAN     CLOUDY    75  68  78 CALM      29.86S
TAPACHULA      MOSUNNY   77  73  88 CALM      29.90R
TUX. GUTIERREZ PTSUNNY   70  70 100 NW3       29.99R
VILLAHERMOSA   MOSUNNY   77  75  94 CALM      29.95R

CENTRAL AMERICA

CITY           SKY/WX    TMP DP  RH WIND       PRES   REMARKS
BELIZE CITY    PTSUNNY   81  75  83 CALM      29.95R
MANAGUA        MOSUNNY   79  72  78 SE5       29.89R

CARIBBEAN

CITY           SKY/WX    TMP DP  RH WIND       PRES   REMARKS
ARUBA          MOSUNNY   88  73  62 E20       29.89S HX  96
KINGSTON       MOSUNNY   82  70  65 NW9       29.94R
NASSAU         PTSUNNY   84  75  74 VRB2      30.00R HX  92
SAN JUAN       MOSUNNY   84  75  74 SE6       30.00R HX  92
ST. CROIX      MOSUNNY   84  75  74 SE10      30.01R HX  92
ST. KITTS      MOSUNNY   86  77  74 E12       30.00S HX  97
ST. THOMAS     PTSUNNY   84  79  84 SE14      29.99  HX  96

$$



USA.gov is the U.S. government's official web portal to all federal, state and local government web resources and services.